Location: Glion
(46.4330°N, 6.9246°E)
Time: 17:45:50
(UTC+00:00)

Cosmos 1933 Rocket - Pass Details

Date: 03 March 2021
Orbit: 607 x 630 km, 82.5° (Epoch: 19 April)

Event Time Altitude Azimuth Distance (km) Brightness Sun altitude
Rises 18:55:57 0° 193° (SSW) 2,858 7.0 -17.1°
Reaches altitude 10° 18:58:10 10° 195° (SSW) 1,962 6.2 -17.4°
Maximum altitude 19:02:29 72° 279° (W) 651 3.8 -18.2°
Drops below altitude 10° 19:06:54 10° 5° (N) 1,991 6.2 -18.9°
Sets 19:09:09 0° 8° (N) 2,906 7.1 -19.3°
